Time,TemperatureF,DewpointF,PressureIn,WindDirection,WindDirectionDegrees,WindSpeedMPH,WindSpeedGustMPH,Humidity,HourlyPrecipIn,Conditions,Clouds,dailyrainin,SoftwareType,DateUTC
2014-12-26 00:13:00,31.0,29.0,30.17,SSE,164,0.0,0.0,93,0.00,,,-99.99,,2014-12-26 05:13:00,
2014-12-26 00:22:00,31.0,29.0,30.17,SSE,167,3.0,5.0,94,0.00,,,-99.99,,2014-12-26 05:22:00,
2014-12-26 00:43:00,31.0,29.0,30.16,SSE,168,6.0,6.0,94,0.00,,,-99.99,,2014-12-26 05:43:00,
2014-12-26 00:53:00,31.0,29.0,30.17,South,181,6.0,6.0,94,0.00,,,-99.99,,2014-12-26 05:53:00,
2014-12-26 01:12:00,31.0,29.0,30.17,South,188,4.0,6.0,94,0.00,,,-99.99,,2014-12-26 06:12:00,
2014-12-26 01:22:00,31.0,29.0,30.17,South,189,3.0,6.0,94,0.00,,,-99.99,,2014-12-26 06:22:00,
2014-12-26 01:42:00,31.0,29.0,30.17,South,188,3.0,4.0,94,0.00,,,-99.99,,2014-12-26 06:42:00,
2014-12-26 01:52:00,30.0,28.0,30.17,South,186,2.0,4.0,93,0.00,,,-99.99,,2014-12-26 06:52:00,
2014-12-26 02:11:00,30.0,28.0,30.18,South,186,4.0,5.0,94,0.00,,,-99.99,,2014-12-26 07:11:00,
2014-12-26 02:22:00,31.0,30.0,30.18,South,186,2.0,5.0,95,0.00,,,-99.99,,2014-12-26 07:22:00,
2014-12-26 02:53:00,31.0,29.0,30.18,South,186,0.0,2.0,94,0.00,,,-99.99,,2014-12-26 07:53:00,
2014-12-26 03:12:00,30.0,28.0,30.19,South,186,0.0,0.0,94,0.00,,,-99.99,,2014-12-26 08:12:00,
2014-12-26 03:22:00,30.0,28.0,30.20,South,186,0.0,0.0,94,0.00,,,-99.99,,2014-12-26 08:22:00,
2014-12-26 03:42:00,30.0,28.0,30.21,South,186,0.0,0.0,94,0.00,,,-99.99,,2014-12-26 08:42:00,
2014-12-26 03:52:00,30.0,28.0,30.21,South,185,4.0,5.0,94,0.00,,,-99.99,,2014-12-26 08:52:00,
2014-12-26 04:12:00,30.0,28.0,30.21,South,185,4.0,5.0,94,0.00,,,-99.99,,2014-12-26 09:12:00,
2014-12-26 04:22:00,30.0,28.0,30.21,South,185,4.0,5.0,94,0.00,,,-99.99,,2014-12-26 09:22:00,
2014-12-26 04:43:00,29.0,27.0,30.21,South,185,4.0,5.0,94,0.00,,,-99.99,,2014-12-26 09:43:00,
2014-12-26 04:53:00,29.0,27.0,30.22,South,185,5.0,5.0,94,0.00,,,-99.99,,2014-12-26 09:53:00,
2014-12-26 05:13:00,28.0,27.0,30.22,South,185,4.0,5.0,95,0.00,,,-99.99,,2014-12-26 10:13:00,
2014-12-26 05:23:00,29.0,28.0,30.22,SSW,192,5.0,5.0,95,0.00,,,-99.99,,2014-12-26 10:23:00,
2014-12-26 05:43:00,29.0,28.0,30.22,SSW,192,6.0,6.0,95,0.00,,,-99.99,,2014-12-26 10:43:00,
2014-12-26 05:54:00,30.0,29.0,30.22,SSW,192,5.0,7.0,95,0.00,,,-99.99,,2014-12-26 10:54:00,
2014-12-26 06:22:00,30.0,29.0,30.22,SSW,197,3.0,5.0,95,0.00,,,-99.99,,2014-12-26 11:22:00,
2014-12-26 06:42:00,30.0,28.0,30.22,SSW,197,4.0,4.0,94,0.00,,,-99.99,,2014-12-26 11:42:00,
2014-12-26 06:52:00,29.0,28.0,30.22,SSW,197,4.0,5.0,95,0.00,,,-99.99,,2014-12-26 11:52:00,
2014-12-26 07:12:00,29.0,28.0,30.23,SSW,197,4.0,4.0,95,0.00,,,-99.99,,2014-12-26 12:12:00,
2014-12-26 07:22:00,30.0,29.0,30.23,SSW,197,3.0,5.0,95,0.00,,,-99.99,,2014-12-26 12:22:00,
2014-12-26 07:42:00,31.0,30.0,30.23,SSW,197,2.0,4.0,95,0.00,,,-99.99,,2014-12-26 12:42:00,
2014-12-26 07:52:00,31.0,30.0,30.23,SSW,196,4.0,4.0,95,0.00,,,-99.99,,2014-12-26 12:52:00,
2014-12-26 08:12:00,30.0,29.0,30.23,SSW,196,5.0,5.0,95,0.00,,,-99.99,,2014-12-26 13:12:00,
2014-12-26 08:22:00,30.0,29.0,30.22,SSW,194,2.0,5.0,95,0.00,,,-99.99,,2014-12-26 13:22:00,
2014-12-26 08:42:00,30.0,29.0,30.23,SSW,194,3.0,5.0,95,0.00,,,-99.99,,2014-12-26 13:42:00,
2014-12-26 08:52:00,30.0,29.0,30.23,SSW,194,4.0,5.0,95,0.00,,,-99.99,,2014-12-26 13:52:00,
2014-12-26 09:12:00,31.0,30.0,30.23,SSW,194,4.0,6.0,95,0.00,,,-99.99,,2014-12-26 14:12:00,
2014-12-26 09:22:00,32.0,31.0,30.24,SSW,192,6.0,8.0,95,0.00,,,-99.99,,2014-12-26 14:22:00,
2014-12-26 09:42:00,33.0,32.0,30.24,South,188,9.0,11.0,95,0.00,,,-99.99,,2014-12-26 14:42:00,
2014-12-26 09:53:00,34.0,32.0,30.24,South,186,9.0,11.0,94,0.00,,,-99.99,,2014-12-26 14:53:00,
2014-12-26 10:12:00,35.0,33.0,30.25,SSW,192,9.0,13.0,94,0.00,,,-99.99,,2014-12-26 15:12:00,
2014-12-26 10:22:00,35.0,33.0,30.25,South,190,10.0,13.0,94,0.00,,,-99.99,,2014-12-26 15:22:00,
2014-12-26 10:44:00,36.0,34.0,30.25,SSW,192,10.0,12.0,93,0.00,,,-99.99,,2014-12-26 15:44:00,
2014-12-26 10:54:00,37.0,35.0,30.24,SSW,204,7.0,12.0,93,0.00,,,-99.99,,2014-12-26 15:54:00,
2014-12-26 11:13:00,38.0,36.0,30.24,SSW,197,7.0,13.0,93,0.00,,,-99.99,,2014-12-26 16:13:00,
2014-12-26 11:23:00,38.0,36.0,30.24,SSW,199,8.0,14.0,92,0.00,,,-99.99,,2014-12-26 16:23:00,